Regional Weather Roundup
Issued by NWS Upton, NY

Current Version | Previous Version | Text Only | Print | Product List | Glossary On
Versions: 1 2 3 4 5 6 7 8 9 10 11 12 13 14 15 16 17 18 19 20 21 22 23 24 25 26 27 28 29 30 31 32 33 34 35 36 37 38 39 40 41 42 43 44 45 46 47
000
ASUS41 KOKX 271507
RWROKX

REGIONAL WEATHER ROUNDUP
NATIONAL WEATHER SERVICE NEW YORK NY
1100 AM EDT MON APR 27 2015

NOTE: "FAIR" INDICATES FEW OR NO CLOUDS BELOW 12,000 FEET WITH NO
SIGNIFICANT WEATHER AND/OR OBSTRUCTIONS TO VISIBILITY.

NYZ071-072-176-178-NJZ106-104-271600-
NEW YORK CITY METRO AREA


CITY           SKY/WX    TMP DP  RH WIND       PRES   REMARKS
CENTRAL PARK   SUNNY     57  30  35 NW9       29.70S
LAGUARDIA APRT MOSUNNY   55  33  43 NW8       29.67F
KENNEDY INTL   PTSUNNY   58  31  35 N12       29.68F
NEWARK/LIBERTY PTSUNNY   59  32  36 NW14G22   29.68S
BRNX BOT. GARD   N/A     55  32  41 N3        29.68F
TETERBORO      MOSUNNY   58  33  39 N9G18     29.66F
$$

NYZ177-179-078>081-271600-
LONG ISLAND NEW YORK

CITY           SKY/WX    TMP DP  RH WIND       PRES   REMARKS
FARMINGDALE    MOSUNNY   57  35  43 N10G18    29.67S
ISLIP          MOSUNNY   56  34  43 NW10      29.64F
SHIRLEY        MOSUNNY   56  35  45 NW14      29.66S
WESTHAMPTON    MOSUNNY   58  34  40 N10       29.66S
MONTAUK POINT    N/A     54  35  48 W9        29.64S
$$

NYZ052-065-067-271600-
HUDSON VALLEY

CITY           SKY/WX    TMP DP  RH WIND       PRES   REMARKS
WHITE PLAINS   PTSUNNY   55  33  43 NW13G22   29.65S
NEWBURGH       NOT AVBL
MONTGOMERY     CLOUDY    55  34  45 NW10      29.68R
POUGHKEEPSIE   CLOUDY    57  35  43 N13G24    29.67S
ALBANY         PTSUNNY   54  36  50 NW9       29.69S
$$

NJZ001-105-106-008-010-013-015-019>022-104-271600-
NEW JERSEY

CITY           SKY/WX    TMP DP  RH WIND       PRES   REMARKS
NEWARK/LIBERTY PTSUNNY   59  32  36 NW14G22   29.68S
TETERBORO      MOSUNNY   58  33  39 N9G18     29.66F
CALDWELL       MOSUNNY   56  31  38 NW13G20   29.69S
MORRISTOWN     MOSUNNY   55  34  44 N8G17     29.70S
SOMERVILLE     CLOUDY    55  33  43 NW12      29.69S
SUSSEX         CLOUDY    53  33  46 NW13      29.71S
ANDOVER          N/A     53  34  48 NE7       29.70F
TRENTON        CLOUDY    54  33  45 NW8       29.72R
MILLVILLE      MOSUNNY   57  34  41 NW15      29.73S
ATLANTIC CITY  PTSUNNY   58  32  37 NW16G23   29.72R
WRIGHTSTOWN    CLOUDY    56  34  44 N10       29.70S
TOMS RIVER     CLOUDY    55  32  41 NW10G21   29.71R
BELMAR         CLOUDY    55  32  41 NW12G17   29.70S
$$

PAZ047>061-062-071-271600-
EASTERN PENNSYLVANIA

CITY           SKY/WX    TMP DP  RH WIND       PRES   REMARKS
PHILADELPHIA   PTSUNNY   57  34  41 NW10G20   29.74S
ALLENTOWN      CLOUDY    52  36  54 NW9       29.75R
SCRANTON       CLOUDY    48  34  58 NW10      29.75R
$$

CTZ002-004>006-009-010-012-RIZ004-006-007-MAZ004-011-015-271600-
SOUTHERN NEW ENGLAND
 IN CT

CITY           SKY/WX    TMP DP  RH WIND       PRES   REMARKS
BRADLEY INTL   PTSUNNY   56  35  45 NW7       29.63F
HARTFORD       CLOUDY    54  36  50 VRB7      29.64F
DANBURY        CLOUDY    54  32  43 NW12G23   29.67R
WTRBRY/OXFORD  CLOUDY    54  34  47 N12G17    29.66S
BRIDGEPORT     PTSUNNY   59  34  39 N9        29.64F
MERIDEN        CLOUDY    57  34  41 N12       29.64S
NEW HAVEN      PTSUNNY   56  33  42 N10G20    29.64R
CHESTER        PTSUNNY   54  34  47 NW13      29.64R
GROTON         CLOUDY    54  33  45 N14       29.62R
WILLIMANTIC    CLOUDY    55  35  47 NW9G18    29.62F

 IN RI

CITY           SKY/WX    TMP DP  RH WIND       PRES   REMARKS
PROVIDENCE     PTSUNNY   56  35  45 NW9G21    29.60S
BLOCK ISLAND   CLOUDY    54  34  47 W12       29.62F
WESTERLY       CLOUDY    56  34  43 NW9       29.61F

 IN MA

CITY           SKY/WX    TMP DP  RH WIND       PRES   REMARKS
BOSTON         PTSUNNY   54  36  50 NW13      29.57F
WORCESTER      CLOUDY    50  33  52 NW17      29.60S
WESTFIELD      CLOUDY    55  33  43 NW14G25   29.63S
PROVINCETOWN   PTSUNNY  N/A N/A N/A N8        29.58F
NANTUCKET      CLOUDY    53  37  54 NW13      29.58S
$$

ANZ330-335-338-340-345-350-353-355-271600-
COASTAL MARINE OBSERVATIONS


STATION/POSITION TIME  SKY/WX   TEMP    WIND        PRES    VSBY  WAVE
                                AIR SEA DIR/SP/G                  HT/PER
                 (UTC)          (F)     (DEG/KT/KT) (MB)    (MI)  (FT/S)
NY HARB ENTRANCE 1450            49 47  300/ 10/ 12 1004.9          2/10
4S FIRE IS       1403               45                N/A           2/ 9
20S FIRE ISLAND  1450            46 44  300/  8/ 10 1005.1          2/ 8
23SW MTP         1450            45 43  280/  4/  4 1003.7          2/10
HUDSON CANYON    NOT AVBL
EXECUTION ROCKS  NOT AVBL
WESTERN LI SOUND NOT AVBL
CENTRAL LI SOUND NOT AVBL
EASTERN LI SOUND 1400            50     240/  6/  8   N/A
ROBBINS REEF     1400            51     330/ 10/ 15 1004.0
$$


>>>>>>>>>>>>>>>>>>>>>>>>>>>> KEY <<<<<<<<<<<<<<<<<<<<<<<<<<<
>                                                          <
>     SKY/WX - SKY CONDITION/PRESENT WEATHER               <
>     TMP    - TEMPERATURE IN FAHRENHEIT                   <
>     DP     - DEWPOINT IN FAHRENHEIT                      <
>     RH     - RELATIVE HUMIDITY IN PERCENT                <
>     WIND   - DIRECTION AND SPEED IN MPH                  <
>     PRES   - MEAN SEA LEVEL PRESSURE IN INCHES OF HG     <
>     WCI    - WIND CHILL INDEX                            <
>     VSB    - VISIBILITY IN MILES                         <
>     HX     - HEAT INDEX                                  <
>     TC     - TEMPERATURE IN CELSIUS                      <
>     VRB    - VARIABLE WIND DIRECTION                     <
>                                                          <
>>>>>>>>>>>>>>>>>>>>>>>>>>>> KEY <<<<<<<<<<<<<<<<<<<<<<<<<<<





USA.gov is the U.S. government's official web portal to all federal, state and local government web resources and services.